Flag for Germany Weather past 2 weeks in Ahrensburg, Schleswig-Holstein, Germany

Now
48 °F

Scattered clouds.


Feels Like: 42 °F
Forecast: 43 / 49 °F
Wind: 15 mph from South

Location: Hamburg-Fuhlsbuettel

Current Time: Mar 28, 2015 at 2:10:24 PM

Latest Report: Mar 28, 2015 at 1:20 PM


Visibility: N/A

Pressure: 29.98 "Hg

Humidity: 54%

Dew point: 32 °F

Location of AhrensburgLocation

Historic Weather in Ahrensburg — Graph

°F

Ahrensburg temperature yesterday

Maximum temperature yesterday: 46 °F (at 10:50 AM)
Minimum temperature yesterday: 41 °F (at 12:20 AM)
Average temperature yesterday: 44 °F

Past Weeks' High & Low Weather Summary

 TemperatureHumidityPressure
High59 °F (Mar 17, 2:50 PM)100% (Mar 20, 6:20 AM)30.48 "Hg (Mar 20, 6:20 AM)
Low28 °F (Mar 20, 6:20 AM)27% (Mar 19, 2:50 PM)29.65 "Hg (Mar 25, 5:20 PM)
Average43 °F74%30.14 "Hg
* Reported Mar 13 12:20 PM — Mar 28 12:50 PM, Ahrensburg, Weather by CustomWeather, © 2015

Note: Actual official high and low records may vary slightly from our data, if they occured in-between our weather recording intervals... More about our weather records

Advertising

Ahrensburg weather history for previous 24 hours

 ConditionsComfort  
Time TempWeatherWind HumidityBarometerVisibility
12:50 PM
Sat, Mar 28
48 °FScattered clouds.14 mph54%30.01 "HgN/A
12:20 PM46 °FPartly sunny.14 mph62%30.04 "HgN/A
11:50 AM46 °FPartly sunny.14 mph62%30.04 "HgN/A
11:20 AM46 °FPartly sunny.13 mph62%30.07 "HgN/A
10:50 AM46 °FPartly sunny.12 mph57%30.07 "HgN/A
10:20 AM45 °FScattered clouds.12 mph71%30.09 "HgN/A
9:50 AM45 °FBroken clouds.9 mph81%30.09 "HgN/A
9:20 AM43 °FBroken clouds.9 mph87%30.09 "HgN/A
8:50 AM43 °FBroken clouds.8 mph87%30.12 "HgN/A
8:20 AM43 °FBroken clouds.9 mph87%30.12 "HgN/A
7:50 AM41 °FPartly sunny.8 mph93%30.12 "HgN/A
7:20 AM41 °FBroken clouds.6 mph93%30.12 "Hg5 mi
6:50 AM41 °FBroken clouds.7 mph93%30.12 "Hg4 mi
6:20 AM41 °FPartly sunny.8 mph93%30.12 "Hg4 mi
5:50 AM41 °FPassing clouds.8 mph93%30.12 "Hg4 mi
5:20 AM41 °FPassing clouds.6 mph93%30.12 "Hg5 mi
4:50 AM41 °FPartly cloudy.6 mph93%30.12 "Hg5 mi
4:20 AM41 °FPartly cloudy.5 mph93%30.12 "Hg5 mi
3:50 AM41 °FPassing clouds.5 mph93%30.12 "Hg6 mi
3:20 AM41 °FPassing clouds.3 mph93%30.12 "HgN/A
2:50 AM41 °FPassing clouds.6 mph87%30.12 "HgN/A
2:20 AM41 °FPartly cloudy.5 mph87%30.12 "HgN/A
1:50 AM41 °FPassing clouds.7 mph87%30.12 "HgN/A
1:20 AM43 °FPassing clouds.9 mph81%30.12 "HgN/A
12:50 AM43 °FPassing clouds.9 mph81%30.12 "HgN/A
12:20 AM43 °FPartly cloudy.10 mph81%30.09 "HgN/A
11:50 PM
Fri, Mar 27
43 °FPassing clouds.10 mph87%30.09 "HgN/A
11:20 PM43 °FPartly cloudy.12 mph87%30.09 "Hg6 mi
10:50 PM43 °FPassing clouds.12 mph87%30.07 "Hg4 mi
10:20 PM43 °FPassing clouds.12 mph87%30.07 "Hg4 mi
9:50 PM43 °FPassing clouds.12 mph93%30.07 "Hg4 mi
9:20 PM43 °FPassing clouds.12 mph93%30.04 "Hg4 mi
8:50 PM45 °FPassing clouds.13 mph87%30.04 "Hg4 mi
8:20 PM45 °FPassing clouds.13 mph87%30.04 "Hg6 mi
7:50 PM45 °FPartly cloudy.12 mph87%30.01 "HgN/A
7:20 PM45 °FPassing clouds.13 mph87%29.98 "HgN/A
6:50 PM45 °FPassing clouds.10 mph87%29.98 "HgN/A
6:20 PM46 °FScattered clouds.12 mph76%29.95 "HgN/A
5:50 PM46 °FScattered clouds.9 mph82%29.95 "HgN/A
5:20 PM46 °FScattered clouds.9 mph82%29.92 "HgN/A
4:50 PM46 °FScattered clouds.7 mph76%29.92 "HgN/A
4:20 PM45 °FSprinkles. Broken clouds.10 mph81%29.89 "HgN/A
3:50 PM45 °FScattered showers. Broken clouds.7 mph87%29.89 "HgN/A
3:20 PM46 °FScattered showers. Broken clouds.6 mph76%29.89 "HgN/A
2:50 PM45 °FScattered showers. Partly sunny.7 mph81%29.86 "HgN/A
2:20 PM46 °FScattered showers. Broken clouds.9 mph71%29.86 "HgN/A
Weather by CustomWeather, © 2015

See weather overviewHow to use our weather pages